Theta_e
316 315 318 317 319 321 322 324 321 324 326 322 325 327 331 331 334 326 332 334 332 330 333 337 327 330 329 333 333 328 329 331 332 333 334 333 333 334 333 329 330 328 330 330 329 331 329 326 325
315 315 318 314 320 323 322 316 324 323 324 325 324 327 326 334 332 332 334 335 331 332 335 336 325 329 328 331 333 328 333 329 332 331 331 330 331 331 331 329 329 329 330 330 331 330 329 324 324
314 316 319 316 317 322 321 316 323 323 323 320 327 325 327 333 332 333 335 334 331 331 335 334 323 328 329 329 330 328 329 328 330 331 331 331 329 328 328 329 328 327 329 329 329 330 328 324 324
314 313 313 316 318 318 317 314 319 325 320 320 325 330 328 329 332 334 335 333 330 329 336 334 324 327 329 327 328 329 329 331 330 331 330 330 329 328 327 327 327 327 327 328 329 328 325 322 321
314 314 320 319 317 317 313 314 319 321 318 323 322 329 332 332 334 335 335 332 329 328 336 333 326 324 330 327 327 328 326 331 331 329 330 332 329 327 326 326 327 327 327 327 328 326 322 319 319
312 314 322 325 321 315 314 315 317 317 317 321 327 329 332 333 335 336 334 332 328 327 336 333 328 323 328 328 325 329 325 329 329 327 329 329 328 327 326 327 326 326 326 325 326 324 320 319 318
312 315 319 320 320 318 319 314 316 316 317 322 324 327 329 331 336 335 334 330 327 328 335 333 330 325 325 326 326 328 329 328 328 326 325 328 328 326 325 325 325 325 324 323 322 321 320 318 317
310 312 314 314 318 319 315 314 314 316 317 320 323 326 329 330 335 335 333 330 330 329 334 334 332 329 324 325 326 325 325 327 325 325 323 322 324 325 325 324 324 322 319 318 319 320 319 318 317
309 314 314 316 315 317 311 316 310 311 321 320 322 322 323 333 335 334 333 331 332 331 332 338 333 331 328 324 324 324 323 324 325 325 323 327 327 325 323 323 322 319 317 316 318 318 318 317 317
313 313 313 312 312 313 312 313 312 314 318 319 323 326 330 335 333 333 332 330 329 330 332 333 336 331 331 328 325 323 323 322 322 323 323 324 324 323 322 322 320 319 317 315 317 317 317 317 317
310 312 310 313 311 311 312 311 310 313 316 318 321 327 330 332 333 332 331 330 329 328 331 328 332 334 333 331 328 325 322 322 320 320 322 322 322 321 321 321 321 319 318 317 315 317 317 317 317
313 311 310 311 310 311 313 309 311 312 314 312 316 327 330 332 332 333 331 331 330 328 326 328 327 332 332 331 330 327 324 322 320 320 320 321 320 321 321 320 320 319 318 317 316 317 317 317 317
312 312 310 309 309 310 310 310 311 311 310 312 320 329 331 332 333 332 332 331 330 329 328 325 325 326 329 329 331 329 327 325 321 320 319 320 320 320 321 320 319 318 318 317 317 317 317 317 317
313 312 310 309 309 310 311 311 310 311 314 322 327 328 330 332 332 332 331 331 331 332 333 328 325 326 324 328 330 329 328 327 325 322 319 318 320 321 322 322 321 318 317 317 317 316 316 316 316
313 315 313 311 309 310 310 312 311 309 316 322 327 327 328 330 331 331 331 331 333 334 334 331 328 326 325 325 326 328 327 327 326 325 322 319 320 322 323 323 322 321 317 316 316 317 317 317 316
313 313 322 313 309 309 311 315 312 308 312 317 325 326 327 327 330 331 331 332 334 334 334 333 331 329 327 325 325 325 324 326 326 326 325 323 320 321 322 322 323 322 320 319 317 317 317 317 316
309 314 313 315 308 309 311 313 311 307 310 311 319 324 326 327 327 329 331 332 334 334 334 334 332 331 329 328 327 327 327 326 327 327 327 326 325 325 324 325 324 322 321 321 320 320 319 318 317
312 312 311 314 313 308 308 310 311 306 307 310 310 319 323 326 327 328 330 331 332 333 333 333 333 332 331 330 329 329 328 329 328 327 326 326 326 326 325 325 325 324 323 321 321 321 321 320 319
313 311 310 309 311 310 309 307 309 307 305 305 305 306 314 323 325 327 329 330 331 332 332 333 332 332 332 331 330 329 329 329 328 327 326 326 325 325 325 325 325 325 325 325 322 321 321 321 320
308 310 310 308 307 307 308 307 307 305 306 305 305 304 305 308 312 318 324 328 330 331 331 332 332 332 332 332 331 330 329 329 328 327 326 326 326 326 326 325 325 325 325 324 324 323 322 321 320
307 307 308 310 307 306 307 307 307 307 304 304 303 304 304 306 308 308 310 318 326 329 330 331 331 331 332 331 331 330 329 329 328 327 327 326 326 326 326 326 326 325 326 325 324 324 323 321 320
308 306 307 307 308 309 305 309 307 306 305 304 305 304 305 305 305 305 305 307 313 320 326 328 329 331 331 331 330 330 329 329 329 329 328 327 326 326 326 326 326 326 326 326 325 325 324 322 321
308 304 306 307 306 305 304 305 305 304 304 304 304 303 305 306 307 305 304 307 308 311 315 319 323 327 328 330 330 330 329 330 329 329 329 329 327 326 327 327 326 327 326 325 324 325 325 325 322
303 304 303 301 303 307 305 306 306 305 306 306 305 304 306 306 302 301 303 305 306 307 306 307 311 318 324 327 328 329 329 329 329 329 328 328 328 327 327 327 327 327 325 324 324 324 324 324 322
304 307 309 309 308 309 303 303 308 306 304 304 306 305 302 300 300 299 298 299 302 304 305 306 307 313 317 324 327 327 328 328 328 328 328 328 328 328 328 327 327 325 324 325 325 325 324 323 322
305 307 309 310 308 306 302 306 307 304 303 302 302 301 301 300 302 302 300 299 301 303 304 304 306 314 319 323 326 327 328 328 329 328 327 328 329 329 330 327 327 327 326 325 325 324 323 322 320
305 306 305 305 293 304 304 302 302 304 304 302 301 301 302 300 300 303 302 302 304 305 306 306 307 310 316 322 326 326 327 327 328 327 327 328 328 328 329 328 328 327 325 325 324 322 321 320 318
305 305 308 306 305 306 304 303 305 305 304 302 302 301 300 299 300 302 302 304 307 308 309 309 309 311 315 319 323 325 325 326 326 326 326 326 326 326 327 326 327 326 323 322 320 321 320 318 315
305 306 305 306 307 308 304 304 300 303 302 302 301 300 301 300 300 301 302 305 307 309 310 311 311 311 311 311 312 314 317 320 323 324 323 323 323 323 325 324 324 323 321 321 321 319 317 315 313
306 306 307 309 306 303 304 306 301 300 301 301 300 301 300 300 299 300 302 304 305 308 311 312 312 312 312 311 310 310 309 307 307 307 312 317 318 319 320 321 321 320 320 319 318 317 314 313 311
Wind_Speed
11 10 5 4 4 4 2 3 0 4 4 3 6 4 5 3 3 1 4 9 18 20 19 14 11 17 16 18 14 13 16 15 14 13 14 14 16 17 17 17 17 17 17 17 18 19 19 18 18
9 7 4 3 4 3 2 2 5 4 3 7 5 3 2 2 2 5 13 14 21 21 19 15 12 16 16 17 15 13 16 14 15 14 13 13 14 15 17 18 16 17 16 17 17 17 17 16 16
6 7 3 4 3 3 3 4 5 3 6 3 3 2 3 3 2 13 7 24 23 21 19 15 13 16 15 16 16 15 14 16 16 14 13 14 14 16 16 17 16 14 16 15 15 16 16 16 16
3 5 4 4 2 2 4 3 3 7 2 1 3 4 0 2 7 9 18 25 23 21 19 15 14 17 14 15 15 15 16 14 14 15 15 16 16 16 16 15 14 15 14 14 15 14 15 15 14
5 3 3 3 3 2 3 2 8 5 4 3 2 4 1 1 8 14 25 25 24 22 19 16 14 16 14 13 14 13 14 14 14 13 15 13 14 15 16 14 14 13 14 13 13 14 15 15 14
4 2 3 2 4 2 4 4 7 4 3 3 3 6 3 4 13 19 26 25 22 22 20 17 14 15 14 12 15 12 15 13 13 14 13 12 11 11 12 12 13 13 12 12 12 13 13 14 14
5 3 4 4 3 4 3 6 6 6 5 4 6 4 0 4 10 22 25 23 21 20 21 18 16 15 13 13 14 13 13 14 11 11 11 11 10 9 9 11 11 11 11 12 12 12 12 12 13
4 4 4 3 3 5 3 5 4 5 5 3 3 4 3 6 14 23 22 22 21 20 20 19 17 16 14 13 11 11 11 11 10 10 10 9 8 8 7 8 9 10 10 10 11 10 10 10 12
3 4 2 4 5 5 3 5 0 1 5 2 5 4 2 19 21 23 21 19 20 19 19 19 19 17 15 13 12 11 10 10 9 9 8 10 9 8 8 6 7 8 8 8 9 9 8 8 10
4 4 8 4 4 2 2 4 8 5 3 3 2 2 8 21 24 21 20 18 17 18 20 21 19 18 16 14 13 11 10 10 9 9 9 8 8 7 5 6 6 6 6 6 6 6 6 6 7
4 5 5 3 3 1 1 1 5 7 3 7 9 8 15 19 22 20 20 20 21 20 19 23 21 19 17 16 14 12 11 10 9 8 8 8 7 6 6 5 5 5 5 3 3 3 3 3 4
1 4 6 1 2 2 2 3 4 6 6 2 7 14 18 19 22 23 22 22 21 20 23 23 23 21 20 17 16 14 12 11 10 9 9 8 6 6 5 4 3 4 5 4 3 1 1 1 1
2 2 5 1 3 3 1 5 5 7 4 3 9 13 16 19 21 21 22 20 20 21 25 25 25 23 20 19 18 17 15 13 12 11 10 9 8 7 6 5 4 4 4 5 5 3 3 3 3
3 5 2 1 2 2 2 2 1 4 5 5 8 11 12 19 24 21 22 24 23 25 27 24 26 25 22 22 21 21 18 15 14 13 12 11 10 9 8 6 5 5 5 6 7 6 5 5 6
4 2 4 2 1 2 4 2 8 4 5 6 7 7 8 14 19 24 25 23 24 27 26 26 26 26 25 23 22 21 20 18 17 15 14 14 13 11 9 9 8 7 7 8 9 8 9 8 8
4 3 1 4 5 2 6 6 9 6 7 9 8 7 7 10 19 21 24 29 30 28 28 27 27 28 27 26 24 22 20 20 19 17 16 15 15 14 13 12 12 9 9 10 11 10 10 10 10
4 3 6 4 5 3 3 6 2 4 6 8 7 7 7 8 13 24 29 29 32 30 29 28 29 29 29 28 26 24 20 20 18 18 18 17 16 15 16 14 13 13 12 12 11 11 11 11 11
6 4 4 5 3 3 1 8 6 4 7 8 6 7 8 9 17 22 29 29 29 30 29 29 31 32 31 29 28 26 24 23 21 20 21 19 19 18 18 17 16 15 15 15 15 14 13 14 13
5 4 5 3 4 3 7 9 13 6 5 7 8 8 9 13 14 21 24 29 30 28 31 33 33 34 33 32 30 29 30 28 26 24 22 22 21 20 20 20 19 18 18 17 16 16 15 16 16
3 3 4 3 1 3 4 10 10 5 7 7 10 9 12 7 6 15 23 26 31 34 35 34 37 37 36 36 36 32 33 31 29 27 25 25 24 23 23 23 21 20 20 19 19 19 19 18 17
4 5 4 5 2 2 3 7 9 8 5 6 7 9 6 12 13 12 20 31 32 35 39 40 39 39 38 38 35 33 26 26 27 29 28 28 28 26 26 24 23 23 23 23 23 22 22 23 18
7 6 4 4 2 4 1 6 5 8 11 6 11 9 14 13 13 10 15 24 36 41 39 39 39 41 40 40 37 36 30 27 30 33 33 31 29 29 28 26 25 25 24 25 26 24 25 24 26
7 6 6 3 2 2 2 3 7 3 5 9 12 15 16 17 17 15 18 31 33 34 36 38 38 39 39 41 40 38 32 30 30 31 31 31 29 26 27 27 27 26 24 24 27 27 28 29 28
10 7 6 4 2 4 7 7 5 6 9 8 10 14 18 16 7 8 17 22 28 27 30 32 33 37 36 38 39 39 35 33 31 32 30 29 27 25 25 26 27 24 25 27 25 26 25 26 28
5 7 1 1 1 6 1 2 10 7 10 9 12 10 7 7 7 7 8 15 25 26 29 29 30 32 33 35 37 39 38 34 35 31 31 30 27 26 25 23 23 23 28 25 24 23 21 23 23
9 8 5 7 4 4 1 7 6 9 11 8 9 8 4 6 5 7 8 13 15 17 18 22 25 28 28 29 31 31 32 32 31 27 29 28 28 26 24 19 21 24 23 21 19 18 17 16 16
5 7 8 6 2 3 5 7 9 12 15 4 10 5 10 9 7 7 7 6 9 10 12 16 18 21 23 24 22 24 25 25 26 27 26 24 23 21 22 18 16 16 15 14 14 13 12 11 9
9 12 5 1 3 4 5 5 7 6 9 7 9 8 8 8 6 3 3 6 4 7 9 10 10 12 15 19 21 22 23 23 24 24 23 20 19 19 19 17 15 14 13 11 8 10 9 8 7
4 7 2 5 5 5 1 6 9 9 5 6 7 7 8 7 6 6 4 3 4 4 6 7 9 11 13 13 14 16 19 23 24 24 22 19 19 19 17 17 14 14 12 9 8 9 9 9 9
2 7 11 8 5 2 3 8 5 8 5 4 8 6 4 4 5 5 6 7 7 8 9 10 10 10 10 11 12 13 14 16 17 20 21 21 18 17 15 16 14 15 14 10 9 13 12 12 14
Wind_Direction
339 338 341 37 56 64 113 194 55 120 154 164 136 151 186 119 160 194 154 145 155 150 146 152 132 136 133 116 116 92 97 98 101 93 94 92 89 87 88 84 86 84 90 89 86 85 85 89 87
339 349 36 75 86 79 262 251 181 181 135 124 101 105 122 125 106 128 136 153 156 150 152 148 132 138 134 120 118 102 107 95 105 109 109 104 94 89 88 93 91 88 86 87 87 84 82 80 79
339 16 70 86 107 157 180 214 172 120 146 146 110 62 143 157 141 160 150 152 155 153 154 149 136 139 135 137 121 109 111 89 108 105 110 104 100 94 94 93 93 92 91 90 86 80 77 76 74
8 30 47 82 203 228 185 200 160 140 252 136 118 118 63 231 165 175 157 157 157 156 156 151 140 144 138 143 131 119 120 112 103 103 106 108 108 102 99 99 98 94 87 88 86 83 81 81 75
41 60 64 70 273 262 248 199 151 153 142 139 140 174 156 138 153 159 158 160 162 159 158 154 145 145 142 138 142 127 127 115 113 107 110 116 109 104 101 98 96 94 86 85 90 87 86 81 75
43 83 84 188 251 246 262 182 144 153 128 137 111 143 166 164 151 161 161 163 166 161 159 158 152 149 151 143 141 133 129 123 124 123 114 118 111 108 111 104 97 93 91 89 93 87 86 78 69
112 87 181 171 250 303 235 150 169 151 143 219 148 130 120 193 169 166 165 164 165 165 162 163 159 153 158 153 153 146 145 146 141 139 139 129 126 117 109 112 104 93 93 87 91 95 88 75 66
106 92 124 222 210 258 176 184 165 153 200 94 158 175 187 191 167 168 166 166 166 169 170 170 167 164 161 162 158 156 152 147 152 144 143 144 139 125 118 122 119 104 99 99 97 99 91 80 71
135 73 171 219 163 240 146 176 47 32 118 205 169 150 171 159 159 163 164 165 169 174 178 176 177 172 169 168 166 164 162 159 155 150 144 146 140 135 124 120 122 118 106 100 97 98 92 79 75
95 131 210 202 210 197 207 212 166 149 120 223 164 65 137 153 158 164 171 174 174 176 185 187 184 180 180 179 177 177 173 173 170 164 160 157 154 149 142 135 135 137 130 112 109 101 94 87 78
173 180 197 225 226 207 184 221 182 134 208 207 197 158 163 167 170 176 185 185 184 183 186 191 194 187 185 189 187 185 186 185 180 180 178 173 171 173 162 148 155 158 155 140 126 111 86 78 77
163 210 158 168 136 104 213 138 206 205 214 298 197 154 165 178 184 185 190 190 187 188 193 194 197 196 192 196 200 198 199 196 196 192 192 190 188 181 177 172 166 176 179 179 168 158 189 176 107
208 219 162 162 254 214 161 235 222 234 246 30 146 152 176 185 190 191 194 194 191 194 198 199 198 203 196 200 205 207 209 209 206 206 206 208 208 202 203 205 211 218 214 210 205 223 239 255 272
212 188 156 146 265 147 198 331 157 268 138 130 160 177 181 188 191 190 197 199 196 204 204 203 202 206 204 200 208 212 212 215 215 217 218 219 217 216 218 229 237 237 237 234 231 243 259 265 269
106 112 348 203 245 148 165 306 236 188 151 169 192 191 189 196 191 199 201 201 199 209 209 207 206 210 213 212 214 218 218 216 221 224 227 228 225 224 233 238 241 247 242 240 242 252 259 264 272
109 64 73 226 172 236 136 263 274 201 173 202 200 201 201 205 207 203 204 208 214 214 213 213 212 214 217 219 222 223 225 221 224 229 232 236 238 238 242 245 244 245 247 247 248 253 264 272 279
45 169 202 289 205 159 172 239 280 163 219 229 209 203 210 222 225 219 216 218 218 218 219 219 218 219 220 223 226 227 228 226 227 230 233 238 240 243 248 251 252 248 251 252 256 262 267 271 277
167 195 206 201 201 116 80 266 258 204 200 237 232 218 214 225 229 222 220 221 223 223 224 226 225 225 225 225 227 227 227 228 228 231 237 239 243 243 246 248 253 250 252 252 253 256 262 272 278
156 149 192 224 227 172 211 234 263 218 232 226 238 233 232 225 236 230 227 223 223 226 227 226 228 228 225 222 224 227 226 226 227 233 241 241 241 242 243 243 244 250 254 259 259 261 261 267 272
149 177 237 299 120 156 273 259 247 200 229 217 221 224 232 238 211 221 222 222 222 225 227 228 230 229 226 225 225 221 224 227 231 235 237 242 243 242 241 243 244 247 251 253 254 254 255 260 264
163 165 191 212 20 229 315 269 234 240 220 235 240 240 223 225 239 229 210 219 222 223 226 228 229 229 229 227 223 224 227 229 231 232 237 238 241 243 246 247 247 251 248 250 251 252 251 257 262
176 203 167 181 101 234 91 279 272 234 234 212 235 234 241 230 235 235 210 216 223 228 228 230 231 230 230 226 219 218 215 217 225 232 238 238 240 242 243 245 250 250 252 252 257 257 256 254 256
208 147 150 121 149 359 313 298 278 6 262 250 238 235 233 238 227 216 213 229 231 231 230 232 231 229 228 224 220 218 218 225 230 238 240 241 242 244 244 246 249 251 254 261 260 261 257 257 256
146 84 55 56 81 266 205 194 246 203 215 224 233 229 228 235 230 243 232 237 238 234 233 233 232 233 229 226 223 222 221 223 228 235 236 240 242 244 242 243 246 251 254 255 260 264 267 267 264
107 113 41 307 235 232 352 236 257 263 244 220 242 260 239 237 253 250 232 223 230 227 225 226 224 226 228 226 224 225 227 228 233 233 235 238 240 243 244 242 240 244 252 253 258 263 268 267 267
168 153 159 196 205 252 22 239 242 237 276 260 229 241 251 243 257 267 255 230 221 222 221 220 217 218 219 220 224 226 230 230 234 237 240 244 247 251 256 254 247 249 255 253 260 264 270 272 271
187 192 163 110 55 36 229 289 290 268 270 274 275 219 237 258 248 258 256 231 206 197 195 208 209 216 219 215 212 220 229 231 233 240 245 252 252 253 257 250 245 246 238 245 252 268 260 261 251
175 148 138 111 175 255 274 274 234 281 263 314 270 247 255 243 225 243 264 230 177 187 177 181 186 198 207 213 215 217 220 225 231 235 238 241 242 239 244 240 233 228 220 229 253 248 230 237 208
137 180 128 133 170 182 252 258 217 227 270 280 287 255 230 240 217 195 199 210 191 169 185 171 184 190 194 202 209 217 224 227 228 229 232 233 233 232 234 230 222 219 211 214 215 215 198 185 164
204 176 176 188 208 241 132 253 225 218 224 213 265 280 246 213 193 187 179 177 176 189 188 192 192 191 190 192 201 209 219 222 222 223 220 218 217 220 223 217 211 205 188 194 193 182 175 168 155